Temp
-12 -11 -11 -11 -11 -11 -11 -11 -10 -10 -10 -10 -10 -9 -10 -10 -9 -9 -10 -10 -10 -10 -10 -10 -10 -10 -9 -9 -9 -9 -9 -9
-13 -12 -11 -11 -11 -11 -11 -11 -11 -10 -10 -10 -10 -10 -9 -9 -9 -9 -10 -10 -10 -10 -10 -10 -10 -10 -10 -10 -10 -10 -10 -10
-13 -12 -11 -11 -11 -11 -11 -11 -11 -11 -10 -11 -10 -10 -10 -10 -10 -10 -10 -10 -10 -10 -11 -10 -10 -10 -10 -10 -10 -10 -10 -10
-13 -12 -11 -11 -11 -11 -12 -12 -12 -11 -11 -11 -10 -10 -10 -10 -10 -10 -10 -10 -10 -10 -11 -11 -11 -11 -11 -11 -11 -11 -11 -11
-13 -13 -12 -12 -12 -12 -12 -13 -13 -12 -11 -11 -11 -11 -11 -11 -11 -11 -11 -11 -11 -11 -11 -11 -11 -11 -11 -11 -11 -11 -11 -11
-13 -12 -12 -12 -13 -12 -12 -13 -13 -13 -12 -12 -11 -11 -11 -11 -11 -11 -11 -11 -11 -11 -11 -11 -11 -11 -11 -11 -12 -11 -11 -11
-14 -13 -13 -13 -13 -13 -12 -12 -13 -13 -12 -12 -12 -12 -12 -12 -11 -11 -11 -11 -11 -11 -11 -11 -11 -11 -11 -12 -12 -12 -12 -12
-14 -14 -14 -14 -13 -13 -13 -13 -13 -13 -12 -12 -13 -12 -12 -12 -12 -12 -12 -12 -12 -12 -12 -12 -12 -12 -12 -11 -12 -12 -12 -12
-14 -14 -14 -14 -14 -14 -14 -13 -13 -12 -13 -13 -12 -13 -12 -12 -12 -12 -13 -12 -12 -12 -12 -12 -12 -12 -12 -12 -12 -12 -12 -12
-13 -14 -14 -14 -14 -14 -14 -14 -13 -13 -13 -12 -13 -13 -13 -13 -13 -13 -13 -13 -13 -13 -12 -12 -12 -12 -12 -12 -12 -12 -12 -12
-13 -13 -14 -14 -14 -15 -14 -15 -14 -14 -14 -14 -13 -13 -12 -13 -13 -13 -13 -13 -13 -13 -13 -13 -12 -12 -12 -12 -12 -12 -12 -12
-13 -14 -14 -15 -14 -15 -15 -15 -15 -14 -14 -14 -13 -13 -12 -13 -13 -13 -13 -13 -13 -13 -13 -13 -13 -13 -12 -12 -12 -12 -12 -12
-14 -14 -15 -14 -14 -14 -15 -15 -15 -15 -14 -13 -13 -13 -12 -13 -13 -13 -13 -13 -13 -12 -13 -13 -13 -13 -13 -13 -13 -13 -13 -13
-15 -15 -15 -15 -15 -14 -14 -15 -15 -14 -14 -13 -13 -13 -13 -13 -13 -13 -12 -12 -13 -13 -13 -13 -12 -13 -13 -13 -13 -13 -13 -13
-15 -15 -15 -15 -15 -15 -15 -15 -15 -15 -14 -14 -13 -13 -14 -14 -13 -14 -14 -14 -13 -14 -14 -13 -13 -13 -13 -13 -12 -12 -12 -12
-15 -15 -15 -15 -15 -14 -15 -15 -15 -15 -15 -14 -14 -14 -14 -13 -13 -14 -14 -14 -14 -14 -14 -13 -13 -13 -12 -13 -12 -12 -12 -12
-16 -16 -16 -16 -15 -15 -15 -14 -15 -15 -15 -15 -14 -14 -14 -14 -14 -14 -14 -14 -13 -13 -13 -13 -12 -13 -13 -13 -13 -12 -13 -12
-16 -16 -16 -16 -16 -16 -15 -15 -15 -15 -15 -15 -14 -14 -14 -14 -15 -14 -14 -15 -16 -15 -13 -12 -12 -13 -13 -12 -13 -12 -12 -13
-16 -16 -16 -16 -16 -16 -15 -16 -15 -15 -15 -15 -15 -14 -14 -15 -15 -17 -16 -15 -15 -15 -15 -12 -12 -13 -12 -12 -13 -13 -13 -13
Height
5749 5754 5756 5760 5763 5767 5769 5774 5778 5783 5786 5789 5793 5796 5800 5806 5811 5815 5819 5824 5828 5831 5833 5837 5841 5844 5846 5849 5851 5853 5855 5856
5740 5745 5748 5753 5756 5760 5766 5770 5774 5779 5783 5787 5790 5795 5799 5804 5810 5814 5817 5821 5825 5829 5832 5835 5838 5841 5844 5846 5848 5850 5852 5853
5730 5737 5743 5746 5750 5753 5758 5764 5769 5774 5779 5781 5785 5789 5795 5799 5805 5810 5815 5819 5822 5826 5830 5832 5835 5838 5841 5842 5844 5847 5848 5849
5721 5729 5735 5740 5745 5749 5754 5758 5764 5769 5775 5776 5780 5784 5787 5793 5801 5807 5811 5815 5818 5821 5826 5829 5831 5834 5837 5839 5841 5843 5844 5845
5711 5720 5727 5734 5739 5741 5747 5751 5756 5762 5769 5772 5776 5783 5788 5793 5798 5802 5805 5808 5813 5816 5820 5824 5827 5829 5833 5834 5836 5838 5840 5841
5700 5710 5719 5725 5729 5735 5740 5745 5749 5756 5762 5766 5771 5777 5781 5785 5791 5796 5799 5803 5807 5811 5814 5816 5820 5824 5826 5828 5830 5832 5834 5836
5689 5699 5709 5714 5721 5726 5730 5736 5741 5747 5755 5759 5766 5771 5776 5781 5786 5790 5793 5797 5800 5804 5807 5809 5812 5816 5818 5820 5823 5826 5828 5829
5676 5684 5694 5704 5710 5718 5722 5727 5735 5739 5746 5752 5758 5765 5770 5775 5779 5783 5787 5791 5795 5798 5800 5802 5805 5808 5811 5814 5817 5819 5821 5823
5665 5673 5683 5692 5701 5708 5714 5720 5726 5731 5738 5744 5750 5756 5763 5768 5772 5777 5780 5785 5789 5791 5794 5796 5798 5801 5804 5807 5810 5811 5813 5814
5654 5664 5673 5681 5689 5697 5705 5711 5718 5723 5727 5733 5739 5747 5754 5760 5765 5769 5773 5777 5782 5785 5788 5790 5793 5795 5798 5800 5802 5803 5804 5805
5646 5654 5663 5672 5680 5687 5696 5702 5709 5716 5720 5724 5731 5739 5743 5748 5753 5759 5764 5769 5771 5775 5779 5782 5785 5787 5789 5792 5794 5795 5795 5796
5635 5645 5656 5663 5668 5674 5685 5693 5699 5706 5711 5717 5721 5727 5734 5739 5743 5748 5752 5756 5760 5763 5768 5770 5773 5777 5779 5781 5783 5784 5785 5786
5626 5636 5646 5653 5659 5665 5673 5682 5691 5698 5704 5708 5713 5718 5724 5729 5731 5735 5740 5745 5748 5750 5756 5761 5763 5766 5769 5771 5773 5773 5774 5775
5617 5627 5635 5642 5649 5656 5663 5671 5680 5686 5689 5697 5703 5708 5713 5718 5721 5724 5728 5733 5739 5741 5745 5749 5752 5754 5757 5759 5761 5762 5763 5764
5607 5616 5623 5631 5638 5646 5654 5661 5668 5676 5680 5687 5693 5697 5702 5706 5710 5714 5718 5723 5727 5730 5732 5734 5737 5740 5743 5746 5749 5750 5751 5752
5595 5603 5612 5620 5628 5635 5642 5650 5656 5661 5668 5674 5680 5686 5690 5693 5698 5702 5706 5710 5713 5715 5719 5720 5723 5726 5730 5734 5736 5738 5740 5739
5583 5592 5601 5610 5618 5625 5632 5640 5646 5652 5658 5663 5667 5672 5676 5682 5686 5691 5692 5695 5699 5702 5701 5705 5708 5713 5718 5722 5725 5727 5727 5724
5574 5582 5590 5598 5606 5614 5622 5629 5636 5643 5648 5652 5659 5662 5667 5669 5671 5676 5679 5681 5683 5686 5688 5692 5697 5700 5706 5706 5713 5713 5717 5717
5566 5573 5580 5587 5594 5603 5610 5617 5624 5630 5635 5640 5646 5649 5653 5655 5660 5663 5668 5672 5675 5676 5678 5680 5684 5688 5693 5697 5698 5702 5706 5706
Wind_Speed
38 38 32 35 32 28 26 21 21 22 23 24 24 24 25 26 27 26 25 22 18 16 17 16 14 12 12 13 13 12 10 9
43 42 40 39 36 31 28 24 19 22 22 22 23 22 26 27 26 25 25 23 21 18 17 17 16 15 14 13 13 13 14 11
50 45 37 40 39 35 30 26 20 20 24 24 26 27 28 29 28 25 23 21 21 20 19 19 19 19 18 18 17 18 17 15
55 46 39 39 39 38 32 29 31 20 26 28 30 31 33 32 28 26 24 23 23 23 22 24 23 22 21 20 20 22 20 19
62 54 46 37 39 42 39 34 33 28 24 27 29 29 26 25 27 28 26 26 25 24 24 24 24 25 25 24 24 25 23 24
63 57 50 44 40 44 42 37 34 34 31 25 29 31 31 32 30 28 27 26 25 25 26 25 25 26 27 25 25 27 27 27
60 58 53 51 44 45 45 43 37 38 40 32 29 31 32 32 33 33 31 29 28 27 28 27 27 26 25 28 30 30 31 30
61 61 58 55 50 43 45 47 43 41 41 46 33 33 31 31 31 31 31 28 27 28 28 29 28 28 29 31 31 32 33 33
63 61 55 52 50 49 43 47 47 46 44 42 48 38 32 32 34 33 31 30 30 32 32 33 33 32 31 30 31 33 35 35
59 58 56 50 49 48 48 48 50 51 53 55 45 50 43 39 40 35 32 31 32 33 35 34 33 35 33 32 32 35 37 38
57 57 58 52 49 46 49 49 49 46 39 44 48 55 46 51 54 45 45 34 33 37 36 35 37 35 34 36 37 39 42 41
55 56 56 52 49 48 53 50 50 49 48 47 50 46 43 46 43 47 44 41 43 45 45 43 43 44 44 45 44 43 45 47
53 52 55 47 44 46 52 52 49 46 48 54 53 54 53 51 51 53 56 57 51 51 50 51 51 48 48 48 50 50 50 50
56 52 50 45 40 40 47 47 48 55 54 57 57 49 49 53 54 55 52 50 53 55 52 53 54 56 55 53 51 50 50 45
56 55 54 51 49 45 41 49 52 50 53 53 54 53 51 47 50 50 53 54 55 56 59 60 61 58 55 55 54 53 52 49
60 62 59 55 51 50 47 49 55 59 56 53 52 52 52 54 51 50 50 48 57 62 59 65 67 65 61 60 52 51 54 56
55 58 58 56 52 51 50 53 56 57 56 55 56 55 54 52 50 44 46 53 53 61 60 69 69 66 63 59 57 52 53 56
60 59 58 58 55 51 52 52 55 57 59 60 57 54 58 51 45 45 37 31 35 39 59 65 61 61 59 55 58 61 57 56
61 63 61 61 61 56 56 53 51 52 54 59 63 64 64 58 53 35 31 31 30 31 30 41 56 51 50 62 69 59 60 54
Wind_Direction
230 232 222 213 212 210 209 210 211 213 210 208 200 197 191 187 183 180 181 185 194 197 197 201 199 201 206 210 212 213 220 227
227 226 232 222 212 209 210 210 216 215 210 211 203 192 187 186 190 192 191 192 198 206 208 217 222 222 228 228 226 231 237 241
228 226 235 220 214 212 205 208 211 217 210 206 204 197 191 193 197 199 203 207 213 216 218 223 229 235 232 232 234 236 241 245
230 226 227 225 219 214 208 211 213 217 221 206 209 202 200 197 199 201 206 215 222 227 226 227 231 237 242 240 241 243 244 250
232 231 229 228 227 217 213 209 211 211 219 215 210 210 206 205 205 204 212 219 221 227 232 234 235 237 242 240 242 245 248 252
235 233 225 226 224 220 215 217 211 212 213 216 215 212 205 203 208 213 218 222 223 225 230 235 237 241 242 245 246 245 248 254
231 233 231 230 226 224 219 215 217 211 209 212 217 218 216 214 214 217 220 221 224 225 229 234 237 242 248 250 248 247 248 255
231 234 232 229 224 222 224 219 214 217 220 212 216 220 220 222 221 223 226 225 229 232 233 237 239 239 241 245 246 246 251 258
228 233 232 231 230 230 226 222 214 217 220 215 211 214 214 221 227 227 230 232 233 237 238 237 237 238 240 242 245 249 255 260
223 230 234 236 239 229 215 219 218 218 224 218 211 214 220 230 231 234 236 240 240 243 246 247 246 246 247 246 249 253 257 260
220 225 231 238 233 231 211 210 213 216 220 234 228 219 214 228 231 229 231 234 243 247 248 253 252 251 251 252 250 254 259 262
220 223 230 234 223 217 205 210 212 216 220 223 233 231 232 233 231 244 238 235 239 246 250 250 251 251 253 254 253 254 260 264
217 219 221 219 217 213 207 210 215 216 222 227 230 234 234 236 234 239 230 234 239 245 248 252 252 254 256 261 259 259 260 266
212 208 212 214 213 212 210 210 214 217 224 228 230 231 236 236 239 244 240 232 241 245 251 254 254 253 254 256 257 266 264 269
210 211 213 214 215 218 219 215 212 217 224 227 229 233 234 235 237 243 247 244 243 248 250 250 254 256 256 257 261 260 263 267
209 209 214 218 219 221 221 216 216 222 225 225 228 231 234 237 238 243 245 245 242 243 248 253 251 253 253 258 260 260 262 271
206 210 217 220 223 225 224 223 220 225 228 232 230 232 237 237 238 236 233 240 244 237 250 244 253 250 253 251 257 258 258 259
210 211 215 221 224 228 228 226 228 231 233 233 233 237 238 238 237 238 244 262 261 260 257 247 249 252 246 247 258 256 260 259
217 215 216 222 225 221 224 227 228 233 236 237 237 236 233 233 234 230 250 259 258 264 273 265 256 248 247 252 251 253 253 255